Mardi 27 juillet 2021   -   semaine 30                    on fête: Nathalie                    soleil  (-3 mn) lever du soleil 06:21:00 coucher du soleil 21:23:00                    lune Lune gibbeuse décroissante
Sélection

Sélection d'un SYNOP

   Synop:       

  Période à consulter:

Actuelle
Archive     

Relevé

Dernier relevé du SYNOP pour la période choisie

Conditions météo à la station de Vichy/Charmeil (4610N 00324E)    altitude 251m

Date du relevé27/07/2021 à 03:00
Visibilité18km
Vent2 km/h SSE
Température14.1 C
Température mini / 12h0.0 C
Humidité96.8 %
Point de rosée13.6 C
Pression absolue987.2 hPa
Pression relative1016.8 hPa
Variation pression-0.1 hPa en baisse puis en hausse

24h

Historique de la période choisie

Certaines stations ne diffusent pas en continu, d'où l'absence possible de données à certaines heures. Le tableau ci-dessous récapitule l'historique des relevés de la station de Vichy/Charmeil.

Date - Heure Base des nuages Visibilité Nébulosité Vent - Secteur Température Humidité Point rosée Pression / Géopotentiel Précipitations Temps
27/07 03:00 18km 2 km/h SSE 14.1 C 96.8 % 13.6 C 1016.8 hPa
27/07 02:00 17km 2 km/h O 14.0 C 96.2 % 13.4 C 1016.7 hPa 0 mm/6h
27/07 01:00 19km 0 km/h N 14.8 C 93.7 % 13.8 C 1016.8 hPa
27/07 00:00 20km 2 km/h S 15.3 C 93.2 % 14.2 C 1016.8 hPa
26/07 23:00 20km 2 km/h O 16.7 C 86.9 % 14.5 C 1016.7 hPa
26/07 22:00 13km 0 km/h N 19.1 C 76.2 % 14.8 C 1015.9 hPa
26/07 21:00 20km 2 km/h NO 21.9 C 62.1 % 14.3 C 1014.8 hPa
26/07 20:00 20km 4 km/h NO 23.7 C 53.9 % 13.8 C 1014.2 hPa 0 mm/12h
26/07 19:00 19km 4 km/h NO 23.8 C 56.1 % 14.5 C 1013.7 hPa
26/07 18:00 20km 4 km/h NO 23.5 C 53.1 % 13.4 C 1014.0 hPa
26/07 17:00 20km 6 km/h ONO 23.9 C 55.0 % 14.3 C 1014.1 hPa
26/07 16:00 20km 4 km/h O 23.9 C 50.9 % 13.1 C 1014.3 hPa
26/07 15:00 20km 6 km/h ONO 24.1 C 55.1 % 14.5 C 1014.3 hPa
26/07 14:00 20km 4 km/h O 23.1 C 54.1 % 13.3 C 1014.4 hPa 0 mm/6h
26/07 13:00 20km 6 km/h ONO 21.8 C 60.1 % 13.7 C 1014.8 hPa
26/07 12:00 20km 6 km/h SO 22.2 C 60.2 % 14.1 C 1014.8 hPa
26/07 11:00 19km 4 km/h OSO 21.0 C 66.0 % 14.4 C 1014.6 hPa
26/07 10:00 20km 4 km/h SO 19.4 C 70.1 % 13.8 C 1014.5 hPa
26/07 09:00 19km 4 km/h SO 19.1 C 76.2 % 14.8 C 1014.3 hPa
26/07 08:00 19km 2 km/h S 16.1 C 92.0 % 14.8 C 1014.4 hPa 0 mm/12h
26/07 07:00 19km 2 km/h S 15.0 C 96.2 % 14.4 C 1014.3 hPa
26/07 06:00 15km 0 km/h N 14.2 C 93.7 % 13.2 C 1013.8 hPa
26/07 05:00 20km 2 km/h S 15.6 C 90.8 % 14.1 C 1013.4 hPa
26/07 04:00 20km 2 km/h SSO 16.4 C 88.0 % 14.4 C 1013.2 hPa
26/07 03:00 20km 2 km/h SO 16.6 C 88.0 % 14.6 C 1013.4 hPa

Source: ogimet